N7920P KLAL-1A3

Flight info

Callsign N7920P
Flight time N/A
Altitude 8500
Route K6A2
Aircraft PA24/L-SDGRY/S

Departure

Time 2026-04-21 16:21
Airport Lakeland Linder International Airport (KLAL)

Arrival

Time N/A
Airport 1A3
Time Latitude Longitude Altitude Speed Heading
2026-04-21 16:12 27.98340 -82.02034 145 ft 8 kts 316°
2026-04-21 16:12 27.98367 -82.02059 145 ft 6 kts 355°
2026-04-21 16:12 27.98394 -82.02051 146 ft 4 kts 15°
2026-04-21 16:13 27.98412 -82.02046 145 ft 4 kts 15°
2026-04-21 16:13 27.98435 -82.02030 146 ft 4 kts 41°
2026-04-21 16:13 27.98460 -82.02005 146 ft 5 kts 39°
2026-04-21 16:13 27.98492 -82.01977 145 ft 6 kts 38°
2026-04-21 16:14 27.98532 -82.01946 145 ft 10 kts 32°
2026-04-21 16:14 27.98593 -82.01903 146 ft 10 kts 32°
2026-04-21 16:14 27.98645 -82.01866 145 ft 8 kts 31°
2026-04-21 16:14 27.98693 -82.01833 146 ft 9 kts 31°
2026-04-21 16:15 27.98736 -82.01856 145 ft 13 kts 262°
2026-04-21 16:15 27.98733 -82.01991 145 ft 20 kts 270°
2026-04-21 16:15 27.98733 -82.02108 145 ft 14 kts 269°
2026-04-21 16:15 27.98732 -82.02223 145 ft 16 kts 270°
2026-04-21 16:16 27.98744 -82.02296 145 ft 5 kts
2026-04-21 16:16 27.98792 -82.02290 145 ft 8 kts
2026-04-21 16:16 27.98816 -82.02325 145 ft 8 kts 266°
2026-04-21 16:16 27.98811 -82.02399 145 ft 11 kts 265°
2026-04-21 16:17 27.98809 -82.02477 145 ft 12 kts 271°
2026-04-21 16:17 27.98808 -82.02554 145 ft 6 kts 271°
2026-04-21 16:17 27.98809 -82.02617 145 ft 10 kts 271°
2026-04-21 16:17 27.98810 -82.02706 145 ft 13 kts 267°
2026-04-21 16:18 27.98806 -82.02795 145 ft 11 kts 284°
2026-04-21 16:18 27.98818 -82.02870 145 ft 9 kts 276°
2026-04-21 16:18 27.98852 -82.02889 145 ft 2 kts 21°
2026-04-21 16:18 27.98853 -82.02889 145 ft 0 kts 21°
2026-04-21 16:19 27.98855 -82.02888 145 ft 2 kts 13°
2026-04-21 16:19 27.98901 -82.02891 145 ft 9 kts
2026-04-21 16:20 27.98933 -82.02828 145 ft 19 kts 87°
2026-04-21 16:20 27.98934 -82.02473 160 ft 76 kts 90°
2026-04-21 16:20 27.98966 -82.01763 338 ft 104 kts 90°
2026-04-21 16:20 27.99103 -82.00960 687 ft 108 kts 65°
2026-04-21 16:21 27.99776 -82.00472 921 ft 131 kts 16°
2026-04-21 16:21 28.00562 -82.00727 1046 ft 153 kts 328°
2026-04-21 16:21 28.01199 -82.01725 1490 ft 143 kts 304°
2026-04-21 16:21 28.01830 -82.02579 1795 ft 141 kts 326°
2026-04-21 16:22 28.02627 -82.03169 2155 ft 133 kts 339°
2026-04-21 16:22 28.03444 -82.03663 2505 ft 133 kts 342°
2026-04-21 16:22 28.04211 -82.04005 2868 ft 131 kts 351°
2026-04-21 16:22 28.05084 -82.04241 3286 ft 127 kts 359°
2026-04-21 16:23 28.05959 -82.04365 3667 ft 127 kts
2026-04-21 16:23 28.06844 -82.04463 4004 ft 128 kts
2026-04-21 16:23 28.07636 -82.04582 4281 ft 130 kts 359°
2026-04-21 16:23 28.08535 -82.04786 4579 ft 132 kts 355°
2026-04-21 16:24 28.09432 -82.05049 4882 ft 133 kts 352°
2026-04-21 16:24 28.10311 -82.05350 5145 ft 134 kts 350°
2026-04-21 16:24 28.11146 -82.05663 5383 ft 136 kts 349°
2026-04-21 16:24 28.12017 -82.05988 5637 ft 136 kts 350°
2026-04-21 16:25 28.12920 -82.06293 5894 ft 135 kts 352°
2026-04-21 16:25 28.13831 -82.06565 6096 ft 136 kts 353°
2026-04-21 16:25 28.14750 -82.06820 6282 ft 136 kts 354°
2026-04-21 16:25 28.15561 -82.07050 6442 ft 136 kts 353°
2026-04-21 16:26 28.16482 -82.07326 6612 ft 137 kts 352°
2026-04-21 16:26 28.17404 -82.07617 6790 ft 138 kts 351°
2026-04-21 16:26 28.18328 -82.07915 6971 ft 138 kts 351°
2026-04-21 16:26 28.19158 -82.08185 7124 ft 139 kts 351°
2026-04-21 16:27 28.20091 -82.08479 7290 ft 139 kts 351°
2026-04-21 16:27 28.21025 -82.08765 7446 ft 139 kts 352°
2026-04-21 16:27 28.21964 -82.09039 7604 ft 139 kts 352°
2026-04-21 16:27 28.22905 -82.09304 7757 ft 140 kts 352°
2026-04-21 16:28 28.23753 -82.09542 7881 ft 140 kts 352°
2026-04-21 16:28 28.24690 -82.09827 8038 ft 142 kts 350°
2026-04-21 16:28 28.25637 -82.10134 8263 ft 142 kts 349°
2026-04-21 16:28 28.26420 -82.10395 8427 ft 143 kts 349°
2026-04-21 16:29 28.27414 -82.10730 8509 ft 151 kts 349°
2026-04-21 16:29 28.28435 -82.11063 8505 ft 155 kts 349°
2026-04-21 16:29 28.29489 -82.11384 8505 ft 158 kts 351°
2026-04-21 16:29 28.30562 -82.11700 8505 ft 160 kts 351°
2026-04-21 16:30 28.31643 -82.12014 8501 ft 159 kts 351°
2026-04-21 16:30 28.32714 -82.12323 8504 ft 160 kts 351°
2026-04-21 16:30 28.33802 -82.12651 8505 ft 163 kts 349°
2026-04-21 16:30 28.34899 -82.13005 8506 ft 165 kts 349°
2026-04-21 16:31 28.35997 -82.13370 8500 ft 162 kts 348°
2026-04-21 16:31 28.36956 -82.13694 8497 ft 159 kts 349°
2026-04-21 16:31 28.38010 -82.14038 8497 ft 157 kts 349°
2026-04-21 16:31 28.39045 -82.14354 8498 ft 155 kts 351°
2026-04-21 16:32 28.40089 -82.14660 8500 ft 155 kts 351°
2026-04-21 16:32 28.41023 -82.14926 8498 ft 154 kts 351°
2026-04-21 16:32 28.42065 -82.15225 8497 ft 154 kts 351°
2026-04-21 16:32 28.43105 -82.15533 8497 ft 154 kts 350°
2026-04-21 16:33 28.44143 -82.15860 8498 ft 155 kts 349°
2026-04-21 16:33 28.45067 -82.16168 8498 ft 155 kts 349°
2026-04-21 16:33 28.46102 -82.16514 8498 ft 154 kts 349°
2026-04-21 16:33 28.47076 -82.16826 8497 ft 154 kts 350°
2026-04-21 16:34 28.48111 -82.17145 8497 ft 154 kts 350°
2026-04-21 16:34 28.49151 -82.17469 8503 ft 157 kts 350°
2026-04-21 16:34 28.50109 -82.17763 8505 ft 161 kts 350°
2026-04-21 16:34 28.51200 -82.18088 8507 ft 163 kts 351°
2026-04-21 16:35 28.52304 -82.18405 8499 ft 162 kts 351°
2026-04-21 16:35 28.53383 -82.18723 8498 ft 159 kts 350°
2026-04-21 16:35 28.54321 -82.19010 8498 ft 157 kts 350°
2026-04-21 16:35 28.55369 -82.19342 8500 ft 156 kts 349°
2026-04-21 16:36 28.56410 -82.19683 8501 ft 155 kts 349°
2026-04-21 16:36 28.57449 -82.20028 8501 ft 157 kts 349°
2026-04-21 16:36 28.58438 -82.20351 8501 ft 158 kts 349°
2026-04-21 16:36 28.59453 -82.20678 8501 ft 159 kts 349°
2026-04-21 16:37 28.60519 -82.21000 8500 ft 158 kts 350°
2026-04-21 16:37 28.61576 -82.21312 8499 ft 156 kts 351°
2026-04-21 16:37 28.62628 -82.21621 8499 ft 156 kts 350°
2026-04-21 16:37 28.63564 -82.21901 8499 ft 155 kts 350°
2026-04-21 16:38 28.64608 -82.22221 8500 ft 155 kts 349°
2026-04-21 16:38 28.65635 -82.22546 8499 ft 155 kts 349°
2026-04-21 16:38 28.66674 -82.22875 8499 ft 155 kts 349°
2026-04-21 16:38 28.67565 -82.23157 8500 ft 155 kts 349°
2026-04-21 16:39 28.68606 -82.23484 8499 ft 155 kts 349°
2026-04-21 16:39 28.69649 -82.23813 8499 ft 155 kts 349°
2026-04-21 16:39 28.70690 -82.24141 8499 ft 155 kts 350°
2026-04-21 16:39 28.71734 -82.24461 8499 ft 155 kts 350°
2026-04-21 16:40 28.72658 -82.24745 8499 ft 155 kts 350°
2026-04-21 16:40 28.73700 -82.25074 8499 ft 155 kts 349°
2026-04-21 16:40 28.74739 -82.25408 8499 ft 155 kts 349°
2026-04-21 16:40 28.75778 -82.25742 8499 ft 155 kts 349°
2026-04-21 16:41 28.76709 -82.26035 8499 ft 155 kts 349°
2026-04-21 16:41 28.77756 -82.26359 8502 ft 157 kts 350°
2026-04-21 16:41 28.78821 -82.26684 8504 ft 159 kts 350°
2026-04-21 16:41 28.79900 -82.27007 8504 ft 161 kts 350°
2026-04-21 16:42 28.80869 -82.27296 8501 ft 159 kts 350°
2026-04-21 16:42 28.81933 -82.27621 8499 ft 157 kts 349°
2026-04-21 16:42 28.82987 -82.27949 8500 ft 156 kts 349°
2026-04-21 16:42 28.84030 -82.28287 8502 ft 156 kts 349°
2026-04-21 16:43 28.85069 -82.28629 8502 ft 155 kts 349°
2026-04-21 16:43 28.86002 -82.28931 8501 ft 155 kts 349°
2026-04-21 16:43 28.87042 -82.29261 8501 ft 155 kts 349°
2026-04-21 16:43 28.87934 -82.29542 8501 ft 155 kts 349°
2026-04-21 16:44 28.88975 -82.29864 8502 ft 155 kts 350°
2026-04-21 16:44 28.90015 -82.30175 8509 ft 159 kts 350°
2026-04-21 16:44 28.91099 -82.30498 8511 ft 163 kts 350°
2026-04-21 16:44 28.92209 -82.30828 8512 ft 165 kts 350°
2026-04-21 16:45 28.93315 -82.31172 8504 ft 162 kts 349°
2026-04-21 16:45 28.94308 -82.31491 8502 ft 159 kts 349°
2026-04-21 16:45 28.95339 -82.31830 8502 ft 157 kts 349°
2026-04-21 16:45 28.96390 -82.32174 8505 ft 156 kts 349°
2026-04-21 16:46 28.97435 -82.32506 8505 ft 156 kts 350°
2026-04-21 16:46 28.98483 -82.32816 8501 ft 156 kts 350°
2026-04-21 16:46 28.99422 -82.33100 8499 ft 156 kts 349°
2026-04-21 16:46 29.00465 -82.33424 8500 ft 156 kts 349°
2026-04-21 16:47 29.01510 -82.33753 8502 ft 155 kts 349°
2026-04-21 16:47 29.02542 -82.34082 8503 ft 157 kts 349°
2026-04-21 16:47 29.03491 -82.34386 8505 ft 159 kts 349°
2026-04-21 16:47 29.04558 -82.34729 8504 ft 160 kts 349°
2026-04-21 16:48 29.05630 -82.35072 8503 ft 159 kts 349°
2026-04-21 16:48 29.06691 -82.35402 8503 ft 157 kts 349°
2026-04-21 16:48 29.07747 -82.35718 8503 ft 156 kts 350°
2026-04-21 16:48 29.08686 -82.36005 8503 ft 156 kts 349°
2026-04-21 16:49 29.09732 -82.36330 8504 ft 156 kts 349°
2026-04-21 16:49 29.10777 -82.36659 8503 ft 156 kts 349°
2026-04-21 16:49 29.11821 -82.36994 8503 ft 156 kts 349°
2026-04-21 16:49 29.12865 -82.37332 8504 ft 156 kts 349°
2026-04-21 16:50 29.13905 -82.37669 8504 ft 156 kts 349°
2026-04-21 16:50 29.14948 -82.38003 8505 ft 155 kts 349°
2026-04-21 16:50 29.15990 -82.38325 8505 ft 155 kts 349°
2026-04-21 16:50 29.17038 -82.38639 8504 ft 155 kts 350°
2026-04-21 16:51 29.18081 -82.38956 8506 ft 155 kts 349°
2026-04-21 16:51 29.19126 -82.39281 8506 ft 155 kts 349°
2026-04-21 16:51 29.20168 -82.39611 8507 ft 155 kts 349°
2026-04-21 16:51 29.21094 -82.39905 8506 ft 156 kts 349°
2026-04-21 16:52 29.22136 -82.40236 8506 ft 155 kts 349°
2026-04-21 16:52 29.23178 -82.40572 8507 ft 156 kts 349°
2026-04-21 16:52 29.23868 -82.40796 8508 ft 155 kts 349°
2026-04-21 16:52 29.25263 -82.41237 8508 ft 155 kts 350°
2026-04-21 16:53 29.26199 -82.41520 8507 ft 155 kts 350°
2026-04-21 16:53 29.27244 -82.41841 8509 ft 155 kts 349°
2026-04-21 16:53 29.28288 -82.42168 8508 ft 155 kts 349°
2026-04-21 16:53 29.29185 -82.42447 8509 ft 155 kts 349°
2026-04-21 16:54 29.30226 -82.42777 8509 ft 155 kts 349°
2026-04-21 16:54 29.31277 -82.43115 8513 ft 159 kts 349°
2026-04-21 16:54 29.32349 -82.43461 8516 ft 161 kts 349°
2026-04-21 16:54 29.33422 -82.43807 8517 ft 163 kts 349°
2026-04-21 16:55 29.34509 -82.44155 8512 ft 160 kts 349°
2026-04-21 16:55 29.35466 -82.44455 8511 ft 158 kts 349°
2026-04-21 16:55 29.36526 -82.44783 8511 ft 157 kts 349°
2026-04-21 16:55 29.37577 -82.45109 8513 ft 156 kts 349°
2026-04-21 16:56 29.38621 -82.45434 8514 ft 156 kts 349°
2026-04-21 16:56 29.39565 -82.45729 8517 ft 159 kts 349°
2026-04-21 16:56 29.40652 -82.46070 8516 ft 164 kts 349°
2026-04-21 16:56 29.41759 -82.46419 8516 ft 166 kts 349°
2026-04-21 16:57 29.42866 -82.46774 8510 ft 163 kts 349°
2026-04-21 16:57 29.43833 -82.47088 8513 ft 159 kts 349°
2026-04-21 16:57 29.44894 -82.47429 8512 ft 157 kts 349°
2026-04-21 16:57 29.45946 -82.47762 8514 ft 156 kts 349°
2026-04-21 16:58 29.46991 -82.48089 8513 ft 156 kts 349°
2026-04-21 16:58 29.48031 -82.48415 8513 ft 155 kts 349°
2026-04-21 16:58 29.48966 -82.48707 8515 ft 155 kts 349°
2026-04-21 16:58 29.50005 -82.49033 8516 ft 155 kts 349°
2026-04-21 16:59 29.51043 -82.49362 8517 ft 155 kts 349°
2026-04-21 16:59 29.52092 -82.49697 8523 ft 159 kts 349°
2026-04-21 16:59 29.53049 -82.50001 8526 ft 163 kts 349°
2026-04-21 16:59 29.54151 -82.50349 8528 ft 165 kts 349°
2026-04-21 17:00 29.55242 -82.50692 8520 ft 162 kts 349°
2026-04-21 17:00 29.56327 -82.51035 8525 ft 163 kts 349°
2026-04-21 17:00 29.57069 -82.51269 8527 ft 165 kts 349°
2026-04-21 17:00 29.58427 -82.51694 8532 ft 166 kts 349°
2026-04-21 17:01 29.59165 -82.51926 8525 ft 164 kts 349°
2026-04-21 17:01 29.60254 -82.52276 8521 ft 160 kts 349°
2026-04-21 17:01 29.61321 -82.52624 8521 ft 159 kts 349°
2026-04-21 17:01 29.62269 -82.52932 8525 ft 157 kts 349°
2026-04-21 17:02 29.63325 -82.53272 8528 ft 157 kts 349°
2026-04-21 17:02 29.64372 -82.53605 8524 ft 156 kts 349°
2026-04-21 17:02 29.65417 -82.53933 8522 ft 155 kts 349°
2026-04-21 17:02 29.66350 -82.54223 8521 ft 155 kts 349°
2026-04-21 17:03 29.67390 -82.54547 8523 ft 155 kts 349°
2026-04-21 17:03 29.68428 -82.54873 8524 ft 155 kts 349°
2026-04-21 17:03 29.69453 -82.55196 8522 ft 155 kts 349°
2026-04-21 17:03 29.70325 -82.55472 8521 ft 154 kts 349°
2026-04-21 17:04 29.71375 -82.55809 8519 ft 154 kts 349°
2026-04-21 17:04 29.72409 -82.56142 8527 ft 156 kts 349°
2026-04-21 17:04 29.73478 -82.56482 8528 ft 161 kts 349°
2026-04-21 17:04 29.74571 -82.56826 8529 ft 164 kts 349°
2026-04-21 17:05 29.75565 -82.57138 8524 ft 163 kts 349°
2026-04-21 17:05 29.76646 -82.57481 8515 ft 160 kts 349°
2026-04-21 17:05 29.77708 -82.57822 8516 ft 157 kts 349°
2026-04-21 17:05 29.78756 -82.58159 8521 ft 156 kts 349°
2026-04-21 17:06 29.79798 -82.58494 8523 ft 155 kts 349°
2026-04-21 17:06 29.80727 -82.58793 8520 ft 155 kts 349°
2026-04-21 17:06 29.81772 -82.59129 8504 ft 156 kts 349°
2026-04-21 17:06 29.82803 -82.59458 8499 ft 156 kts 349°
2026-04-21 17:07 29.83846 -82.59789 8499 ft 155 kts 349°
2026-04-21 17:07 29.84781 -82.60084 8507 ft 158 kts 349°
2026-04-21 17:07 29.85861 -82.60421 8508 ft 163 kts 349°
2026-04-21 17:07 29.86964 -82.60764 8508 ft 165 kts 349°
2026-04-21 17:08 29.88074 -82.61111 8500 ft 163 kts 349°
2026-04-21 17:08 29.89042 -82.61421 8499 ft 160 kts 349°
2026-04-21 17:08 29.90108 -82.61768 8497 ft 158 kts 349°
2026-04-21 17:08 29.91159 -82.62114 8500 ft 157 kts 348°
2026-04-21 17:09 29.93236 -82.62791 8498 ft 156 kts 349°
2026-04-21 17:09 29.94178 -82.63091 8496 ft 155 kts 349°
2026-04-21 17:09 29.95219 -82.63419 8495 ft 155 kts 349°
2026-04-21 17:10 29.96260 -82.63746 8499 ft 155 kts 349°
2026-04-21 17:10 29.97305 -82.64074 8500 ft 156 kts 349°
2026-04-21 17:10 29.98236 -82.64366 8500 ft 157 kts 349°
2026-04-21 17:10 29.99286 -82.64698 8496 ft 156 kts 349°
2026-04-21 17:11 30.00331 -82.65036 8495 ft 155 kts 349°
2026-04-21 17:11 30.01373 -82.65373 8504 ft 157 kts 349°
2026-04-21 17:11 30.02283 -82.65664 8506 ft 161 kts 349°
2026-04-21 17:11 30.03427 -82.66027 8506 ft 164 kts 349°
2026-04-21 17:12 30.04526 -82.66376 8497 ft 162 kts 349°
2026-04-21 17:12 30.05605 -82.66721 8501 ft 161 kts 349°
2026-04-21 17:12 30.06697 -82.67071 8503 ft 164 kts 349°
2026-04-21 17:12 30.07799 -82.67423 8508 ft 165 kts 349°
2026-04-21 17:13 30.08890 -82.67774 8500 ft 163 kts 348°
2026-04-21 17:13 30.09966 -82.68125 8495 ft 159 kts 348°
2026-04-21 17:13 30.11021 -82.68473 8493 ft 157 kts 348°
2026-04-21 17:13 30.11956 -82.68780 8497 ft 155 kts 349°
2026-04-21 17:14 30.12993 -82.69116 8500 ft 154 kts 349°
2026-04-21 17:14 30.14031 -82.69446 8500 ft 156 kts 349°
2026-04-21 17:14 30.15090 -82.69777 8500 ft 159 kts 349°
2026-04-21 17:14 30.15988 -82.70056 8500 ft 160 kts 349°
2026-04-21 17:15 30.17125 -82.70410 8498 ft 159 kts 349°
2026-04-21 17:15 30.18183 -82.70745 8497 ft 157 kts 349°
2026-04-21 17:15 30.19227 -82.71087 8496 ft 155 kts 349°
2026-04-21 17:15 30.20263 -82.71434 8497 ft 154 kts 349°
2026-04-21 17:16 30.21187 -82.71741 8497 ft 154 kts 349°
2026-04-21 17:16 30.22223 -82.72081 8502 ft 157 kts 349°
2026-04-21 17:16 30.23293 -82.72421 8505 ft 161 kts 349°
2026-04-21 17:16 30.24369 -82.72756 8506 ft 163 kts 349°
2026-04-21 17:17 30.25354 -82.73062 8499 ft 162 kts 349°
2026-04-21 17:17 30.26430 -82.73399 8503 ft 161 kts 349°
2026-04-21 17:17 30.27521 -82.73743 8505 ft 163 kts 349°
2026-04-21 17:17 30.28620 -82.74093 8509 ft 164 kts 349°
2026-04-21 17:18 30.29641 -82.74427 8502 ft 162 kts 349°
2026-04-21 17:18 30.30676 -82.74773 8496 ft 158 kts 348°
2026-04-21 17:18 30.31728 -82.75125 8495 ft 156 kts 349°
2026-04-21 17:18 30.32616 -82.75419 8498 ft 155 kts 349°
2026-04-21 17:19 30.33650 -82.75754 8502 ft 154 kts 349°
2026-04-21 17:19 30.34681 -82.76083 8499 ft 154 kts 349°
2026-04-21 17:19 30.35712 -82.76408 8497 ft 153 kts 349°
2026-04-21 17:19 30.36742 -82.76733 8496 ft 153 kts 349°
2026-04-21 17:20 30.37758 -82.77054 8498 ft 153 kts 349°
2026-04-21 17:20 30.38675 -82.77346 8499 ft 153 kts 349°
2026-04-21 17:20 30.39715 -82.77683 8498 ft 153 kts 349°
2026-04-21 17:20 30.40728 -82.78014 8497 ft 153 kts 349°
2026-04-21 17:21 30.41755 -82.78348 8496 ft 153 kts 349°
2026-04-21 17:21 30.42780 -82.78677 8499 ft 153 kts 349°
2026-04-21 17:21 30.43688 -82.78968 8500 ft 153 kts 349°
2026-04-21 17:21 30.44712 -82.79295 8501 ft 153 kts 349°
2026-04-21 17:22 30.45741 -82.79627 8500 ft 153 kts 349°
2026-04-21 17:22 30.46768 -82.79959 8501 ft 153 kts 349°
2026-04-21 17:22 30.47690 -82.80258 8501 ft 153 kts 349°
2026-04-21 17:22 30.48715 -82.80591 8502 ft 153 kts 349°
2026-04-21 17:23 30.49741 -82.80927 8502 ft 153 kts 349°
2026-04-21 17:23 30.50753 -82.81259 8502 ft 153 kts 349°
2026-04-21 17:23 30.51669 -82.81554 8502 ft 153 kts 349°
2026-04-21 17:23 30.52694 -82.81881 8503 ft 153 kts 349°
2026-04-21 17:24 30.53719 -82.82207 8503 ft 153 kts 349°
2026-04-21 17:24 30.54745 -82.82535 8503 ft 153 kts 349°
2026-04-21 17:24 30.55771 -82.82865 8504 ft 153 kts 349°
2026-04-21 17:24 30.56688 -82.83163 8504 ft 153 kts 349°
2026-04-21 17:25 30.57713 -82.83497 8504 ft 153 kts 349°
2026-04-21 17:25 30.58738 -82.83834 8505 ft 153 kts 349°
2026-04-21 17:25 30.59762 -82.84171 8505 ft 153 kts 349°
2026-04-21 17:25 30.60785 -82.84504 8505 ft 153 kts 349°
2026-04-21 17:26 30.61809 -82.84833 8505 ft 153 kts 349°
2026-04-21 17:26 30.62840 -82.85162 8506 ft 155 kts 349°
2026-04-21 17:26 30.63891 -82.85496 8507 ft 157 kts 349°
2026-04-21 17:26 30.64829 -82.85796 8506 ft 159 kts 349°
2026-04-21 17:27 30.65893 -82.86140 8502 ft 158 kts 349°
2026-04-21 17:27 30.66941 -82.86483 8500 ft 156 kts 349°
2026-04-21 17:27 30.67979 -82.86825 8500 ft 154 kts 349°
2026-04-21 17:27 30.69009 -82.87166 8502 ft 153 kts 349°
2026-04-21 17:28 30.69926 -82.87468 8503 ft 153 kts 349°
2026-04-21 17:28 30.70953 -82.87803 8502 ft 153 kts 349°
2026-04-21 17:28 30.71977 -82.88132 8501 ft 153 kts 349°
2026-04-21 17:28 30.72856 -82.88415 8501 ft 153 kts 349°
2026-04-21 17:29 30.73879 -82.88744 8503 ft 152 kts 349°
2026-04-21 17:29 30.74901 -82.89073 8504 ft 152 kts 349°
2026-04-21 17:29 30.75923 -82.89404 8503 ft 152 kts 349°
2026-04-21 17:29 30.76944 -82.89734 8503 ft 152 kts 349°
2026-04-21 17:30 30.77955 -82.90063 8504 ft 152 kts 349°
2026-04-21 17:30 30.78977 -82.90398 8504 ft 152 kts 349°
2026-04-21 17:30 30.79997 -82.90732 8506 ft 152 kts 349°
2026-04-21 17:30 30.81017 -82.91064 8506 ft 152 kts 349°
2026-04-21 17:31 30.82036 -82.91396 8505 ft 152 kts 349°
2026-04-21 17:31 30.82953 -82.91693 8505 ft 152 kts 349°
2026-04-21 17:31 30.83975 -82.92024 8505 ft 152 kts 349°
2026-04-21 17:31 30.84994 -82.92355 8505 ft 152 kts 349°
2026-04-21 17:32 30.85671 -82.92576 8506 ft 152 kts 349°
2026-04-21 17:32 30.86916 -82.92982 8506 ft 153 kts 349°
2026-04-21 17:32 30.87944 -82.93317 8507 ft 154 kts 349°
2026-04-21 17:32 30.88977 -82.93653 8508 ft 154 kts 349°
2026-04-21 17:33 30.90014 -82.93990 8506 ft 154 kts 349°
2026-04-21 17:33 30.91047 -82.94326 8506 ft 153 kts 349°
2026-04-21 17:33 30.92072 -82.94661 8506 ft 153 kts 349°
2026-04-21 17:33 30.93094 -82.94995 8506 ft 152 kts 349°
2026-04-21 17:34 30.94114 -82.95330 8506 ft 152 kts 349°
2026-04-21 17:34 30.95133 -82.95664 8506 ft 152 kts 349°
2026-04-21 17:34 30.96153 -82.95995 8506 ft 152 kts 349°
2026-04-21 17:34 30.97171 -82.96326 8507 ft 152 kts 349°
2026-04-21 17:35 30.98178 -82.96654 8507 ft 152 kts 349°
2026-04-21 17:35 30.99196 -82.96988 8507 ft 152 kts 349°
2026-04-21 17:35 31.00106 -82.97285 8507 ft 152 kts 349°
2026-04-21 17:35 31.01125 -82.97617 8507 ft 152 kts 349°
2026-04-21 17:36 31.02143 -82.97949 8507 ft 152 kts 349°
2026-04-21 17:36 31.03163 -82.98282 8507 ft 152 kts 349°
2026-04-21 17:36 31.04073 -82.98580 8507 ft 152 kts 349°
2026-04-21 17:36 31.05089 -82.98911 8507 ft 152 kts 349°
2026-04-21 17:37 31.06106 -82.99243 8507 ft 152 kts 349°
2026-04-21 17:37 31.07121 -82.99576 8508 ft 152 kts 349°
2026-04-21 17:37 31.07792 -82.99797 8508 ft 152 kts 349°
2026-04-21 17:37 31.09044 -83.00211 8508 ft 151 kts 349°
2026-04-21 17:38 31.10043 -83.00545 8509 ft 151 kts 349°
2026-04-21 17:38 31.11062 -83.00883 8515 ft 155 kts 349°
2026-04-21 17:38 31.12117 -83.01225 8518 ft 159 kts 349°
2026-04-21 17:38 31.13038 -83.01520 8517 ft 161 kts 349°
2026-04-21 17:39 31.14119 -83.01865 8511 ft 159 kts 349°
2026-04-21 17:39 31.15174 -83.02206 8511 ft 157 kts 349°
2026-04-21 17:39 31.16228 -83.02550 8512 ft 157 kts 349°
2026-04-21 17:39 31.16936 -83.02784 8515 ft 157 kts 349°
2026-04-21 17:40 31.18213 -83.03209 8513 ft 155 kts 349°
2026-04-21 17:40 31.19252 -83.03555 8515 ft 157 kts 349°
2026-04-21 17:40 31.20316 -83.03905 8517 ft 160 kts 349°
2026-04-21 17:40 31.21395 -83.04258 8520 ft 162 kts 349°
2026-04-21 17:41 31.22361 -83.04574 8518 ft 158 kts 349°
2026-04-21 17:41 31.23418 -83.04920 8521 ft 159 kts 349°
2026-04-21 17:41 31.24490 -83.05268 8521 ft 161 kts 349°
2026-04-21 17:41 31.25571 -83.05620 8523 ft 162 kts 349°
2026-04-21 17:42 31.26540 -83.05938 8513 ft 159 kts 349°
2026-04-21 17:42 31.27590 -83.06287 8512 ft 155 kts 348°
2026-04-21 17:42 31.28621 -83.06633 8512 ft 153 kts 349°
2026-04-21 17:42 31.29639 -83.06974 8515 ft 152 kts 349°
2026-04-21 17:43 31.30652 -83.07310 8516 ft 151 kts 349°
2026-04-21 17:43 31.31538 -83.07602 8514 ft 151 kts 349°
2026-04-21 17:43 31.32549 -83.07930 8512 ft 151 kts 349°
2026-04-21 17:43 31.33425 -83.08213 8512 ft 151 kts 349°
2026-04-21 17:44 31.34437 -83.08540 8515 ft 150 kts 349°
2026-04-21 17:44 31.35445 -83.08867 8516 ft 150 kts 349°
2026-04-21 17:44 31.36451 -83.09196 8515 ft 150 kts 349°
2026-04-21 17:44 31.37459 -83.09528 8515 ft 150 kts 349°
2026-04-21 17:45 31.38466 -83.09862 8515 ft 150 kts 349°
2026-04-21 17:45 31.39372 -83.10163 8519 ft 152 kts 349°
2026-04-21 17:45 31.40399 -83.10503 8521 ft 154 kts 349°
2026-04-21 17:45 31.41437 -83.10845 8521 ft 155 kts 349°
2026-04-21 17:46 31.42479 -83.11186 8517 ft 154 kts 349°
2026-04-21 17:46 31.43505 -83.11525 8516 ft 152 kts 349°
2026-04-21 17:46 31.44415 -83.11828 8517 ft 151 kts 349°
2026-04-21 17:46 31.45427 -83.12164 8518 ft 151 kts 349°
2026-04-21 17:47 31.46437 -83.12498 8519 ft 151 kts 349°
2026-04-21 17:47 31.47107 -83.12717 8518 ft 151 kts 349°
2026-04-21 17:47 31.47945 -83.12991 8518 ft 151 kts 349°
2026-04-21 17:47 31.49022 -83.13344 8519 ft 151 kts 348°
2026-04-21 17:48 31.50034 -83.13678 8520 ft 151 kts 348°
2026-04-21 17:48 31.51381 -83.14122 8526 ft 155 kts 348°
2026-04-21 17:48 31.52090 -83.14355 8527 ft 158 kts 348°
2026-04-21 17:48 31.53392 -83.14782 8529 ft 161 kts 348°
2026-04-21 17:49 31.54122 -83.15022 8520 ft 160 kts 348°
2026-04-21 17:49 31.55180 -83.15375 8520 ft 156 kts 348°
2026-04-21 17:49 31.56221 -83.15726 8523 ft 155 kts 348°
2026-04-21 17:49 31.57150 -83.16037 8525 ft 154 kts 348°
2026-04-21 17:50 31.58169 -83.16378 8527 ft 154 kts 348°
2026-04-21 17:50 31.59194 -83.16721 8523 ft 153 kts 348°
2026-04-21 17:50 31.60213 -83.17060 8522 ft 152 kts 348°
2026-04-21 17:50 31.61150 -83.17370 8523 ft 151 kts 348°
2026-04-21 17:51 31.62133 -83.17692 8525 ft 151 kts 349°
2026-04-21 17:51 31.63144 -83.18023 8526 ft 151 kts 349°
2026-04-21 17:51 31.64155 -83.18355 8524 ft 151 kts 348°
2026-04-21 17:51 31.65165 -83.18688 8524 ft 151 kts 348°
2026-04-21 17:52 31.66070 -83.18987 8525 ft 151 kts 348°
2026-04-21 17:52 31.67081 -83.19320 8531 ft 152 kts 348°
2026-04-21 17:52 31.68118 -83.19661 8532 ft 156 kts 348°
2026-04-21 17:52 31.69172 -83.20007 8533 ft 158 kts 348°
2026-04-21 17:53 31.70125 -83.20321 8524 ft 158 kts 348°
2026-04-21 17:53 31.71171 -83.20671 8535 ft 157 kts 348°
2026-04-21 17:53 31.72235 -83.21027 8536 ft 160 kts 348°
2026-04-21 17:53 31.73155 -83.21335 8538 ft 161 kts 348°
2026-04-21 17:54 31.74237 -83.21698 8528 ft 161 kts 348°
2026-04-21 17:54 31.75299 -83.22057 8524 ft 157 kts 348°
2026-04-21 17:54 31.76341 -83.22408 8526 ft 155 kts 348°
2026-04-21 17:54 31.77374 -83.22752 8530 ft 154 kts 348°
2026-04-21 17:55 31.78401 -83.23091 8533 ft 153 kts 348°
2026-04-21 17:55 31.79318 -83.23392 8535 ft 155 kts 349°
2026-04-21 17:55 31.80360 -83.23729 8534 ft 159 kts 348°
2026-04-21 17:55 31.81439 -83.24074 8536 ft 161 kts 348°
2026-04-21 17:56 31.82523 -83.24428 8531 ft 160 kts 348°
2026-04-21 17:56 31.83472 -83.24747 8535 ft 157 kts 348°
2026-04-21 17:56 31.84530 -83.25108 8532 ft 158 kts 348°
2026-04-21 17:56 31.85589 -83.25470 8534 ft 159 kts 348°
2026-04-21 17:57 31.86649 -83.25830 8532 ft 158 kts 348°
2026-04-21 17:57 31.87694 -83.26183 8532 ft 156 kts 348°
2026-04-21 17:57 31.88628 -83.26495 8533 ft 156 kts 348°
2026-04-21 17:57 31.89669 -83.26839 8533 ft 156 kts 348°
2026-04-21 17:58 31.90715 -83.27183 8533 ft 155 kts 348°
2026-04-21 17:58 31.91747 -83.27524 8532 ft 153 kts 348°
2026-04-21 17:58 31.92665 -83.27830 8532 ft 152 kts 348°
2026-04-21 17:58 31.93685 -83.28172 8532 ft 152 kts 348°
2026-04-21 17:59 31.94699 -83.28513 8533 ft 152 kts 348°
2026-04-21 17:59 31.95703 -83.28849 8539 ft 153 kts 348°
2026-04-21 17:59 31.96741 -83.29193 8540 ft 156 kts 348°
2026-04-21 17:59 31.97793 -83.29539 8541 ft 158 kts 348°
2026-04-21 18:00 31.98852 -83.29888 8537 ft 157 kts 348°
2026-04-21 18:00 31.99898 -83.30234 8543 ft 157 kts 348°
2026-04-21 18:00 32.00958 -83.30582 8547 ft 159 kts 348°
2026-04-21 18:00 32.01921 -83.30892 8549 ft 160 kts 348°
2026-04-21 18:01 32.02992 -83.31246 8542 ft 158 kts 347°
2026-04-21 18:01 32.04023 -83.31597 8538 ft 154 kts 347°
2026-04-21 18:01 32.05045 -83.31951 8538 ft 152 kts 347°
2026-04-21 18:01 32.06054 -83.32302 8542 ft 151 kts 347°
2026-04-21 18:02 32.07058 -83.32648 8544 ft 150 kts 347°
2026-04-21 18:02 32.08060 -83.32988 8541 ft 150 kts 347°
2026-04-21 18:02 32.09064 -83.33324 8540 ft 150 kts 347°
2026-04-21 18:02 32.09961 -83.33625 8540 ft 150 kts 347°
2026-04-21 18:03 32.10961 -83.33956 8543 ft 149 kts 348°
2026-04-21 18:03 32.11968 -83.34287 8544 ft 149 kts 348°
2026-04-21 18:03 32.12969 -83.34617 8542 ft 149 kts 348°
2026-04-21 18:03 32.13830 -83.34902 8541 ft 150 kts 348°
2026-04-21 18:04 32.14818 -83.35232 8542 ft 150 kts 347°
2026-04-21 18:04 32.15819 -83.35567 8543 ft 149 kts 347°
2026-04-21 18:04 32.16833 -83.35906 8542 ft 150 kts 348°
2026-04-21 18:04 32.17822 -83.36238 8541 ft 150 kts 347°
2026-04-21 18:05 32.18716 -83.36541 8541 ft 150 kts 347°
2026-04-21 18:05 32.19717 -83.36879 8540 ft 150 kts 347°
2026-04-21 18:05 32.20720 -83.37219 8541 ft 149 kts 347°
2026-04-21 18:05 32.21722 -83.37554 8542 ft 149 kts 348°
2026-04-21 18:06 32.22598 -83.37846 8543 ft 149 kts 348°
2026-04-21 18:06 32.23622 -83.38189 8543 ft 150 kts 347°
2026-04-21 18:06 32.24624 -83.38523 8542 ft 150 kts 347°
2026-04-21 18:06 32.25629 -83.38856 8542 ft 150 kts 347°
2026-04-21 18:07 32.26634 -83.39191 8543 ft 150 kts 347°
2026-04-21 18:07 32.27533 -83.39499 8536 ft 150 kts 348°
2026-04-21 18:07 32.28536 -83.39800 8531 ft 151 kts 346°
2026-04-21 18:07 32.29527 -83.40214 8529 ft 151 kts 343°
2026-04-21 18:08 32.30518 -83.40628 8529 ft 151 kts 344°
2026-04-21 18:08 32.31405 -83.40996 8530 ft 154 kts 344°
2026-04-21 18:08 32.32431 -83.41420 8538 ft 158 kts 344°
2026-04-21 18:08 32.33478 -83.41851 8539 ft 160 kts 344°
2026-04-21 18:09 32.34535 -83.42287 8531 ft 159 kts 344°
2026-04-21 18:09 32.35537 -83.42703 8528 ft 155 kts 344°
2026-04-21 18:09 32.36474 -83.43100 8526 ft 153 kts 343°
2026-04-21 18:09 32.37477 -83.43510 8531 ft 152 kts 344°
2026-04-21 18:10 32.38457 -83.43926 8533 ft 151 kts 343°
2026-04-21 18:10 32.39447 -83.44348 8531 ft 151 kts 343°
2026-04-21 18:10 32.40333 -83.44723 8529 ft 151 kts 343°
2026-04-21 18:10 32.41324 -83.45144 8528 ft 151 kts 343°
2026-04-21 18:11 32.42311 -83.45564 8530 ft 151 kts 343°
2026-04-21 18:11 32.43298 -83.45984 8532 ft 151 kts 343°
2026-04-21 18:11 32.44179 -83.46363 8530 ft 151 kts 343°
2026-04-21 18:11 32.45166 -83.46786 8530 ft 151 kts 343°
2026-04-21 18:12 32.46154 -83.47205 8531 ft 151 kts 343°
2026-04-21 18:12 32.47138 -83.47629 8531 ft 151 kts 343°
2026-04-21 18:12 32.48123 -83.48055 8533 ft 150 kts 343°
2026-04-21 18:12 32.49004 -83.48434 8532 ft 151 kts 343°
2026-04-21 18:13 32.49978 -83.48856 8532 ft 150 kts 343°
2026-04-21 18:13 32.50962 -83.49283 8532 ft 150 kts 343°
2026-04-21 18:13 32.51946 -83.49711 8532 ft 150 kts 343°
2026-04-21 18:13 32.52793 -83.50081 8532 ft 150 kts 343°
2026-04-21 18:14 32.54759 -83.50936 8532 ft 150 kts 343°
2026-04-21 18:14 32.55742 -83.51365 8531 ft 150 kts 343°
2026-04-21 18:14 32.56726 -83.51797 8533 ft 150 kts 343°
2026-04-21 18:15 32.57706 -83.52227 8532 ft 150 kts 343°
2026-04-21 18:15 32.58674 -83.52653 8534 ft 150 kts 343°
2026-04-21 18:15 32.59657 -83.53086 8533 ft 150 kts 343°
2026-04-21 18:15 32.60638 -83.53520 8533 ft 150 kts 342°
2026-04-21 18:16 32.61517 -83.53910 8533 ft 150 kts 342°
2026-04-21 18:16 32.62499 -83.54341 8530 ft 151 kts 342°
2026-04-21 18:16 32.63497 -83.54749 8531 ft 152 kts 342°
2026-04-21 18:16 32.64501 -83.55167 8532 ft 153 kts 342°
2026-04-21 18:17 32.65403 -83.55543 8532 ft 154 kts 342°
2026-04-21 18:17 32.66412 -83.55965 8530 ft 154 kts 342°
2026-04-21 18:17 32.67423 -83.56387 8527 ft 154 kts 342°
2026-04-21 18:17 32.68433 -83.56810 8526 ft 154 kts 342°
2026-04-21 18:18 32.69340 -83.57191 8531 ft 154 kts 342°
2026-04-21 18:18 32.70350 -83.57616 8523 ft 154 kts 342°
2026-04-21 18:18 32.71350 -83.58038 8517 ft 154 kts 342°
2026-04-21 18:18 32.72215 -83.58401 8515 ft 154 kts 342°
2026-04-21 18:19 32.73225 -83.58828 8519 ft 154 kts 342°
2026-04-21 18:19 32.74232 -83.59253 8520 ft 154 kts 342°
2026-04-21 18:19 32.75239 -83.59679 8520 ft 154 kts 342°
2026-04-21 18:19 32.76247 -83.60107 8520 ft 154 kts 342°
2026-04-21 18:20 32.77254 -83.60535 8519 ft 154 kts 342°
2026-04-21 18:20 32.78159 -83.60923 8516 ft 157 kts 342°
2026-04-21 18:20 32.79202 -83.61364 8526 ft 161 kts 342°
2026-04-21 18:20 32.80264 -83.61816 8529 ft 163 kts 342°
2026-04-21 18:21 32.81336 -83.62270 8521 ft 161 kts 342°
2026-04-21 18:21 32.82030 -83.62566 8528 ft 159 kts 342°
2026-04-21 18:21 32.83336 -83.63121 8526 ft 163 kts 342°
2026-04-21 18:21 32.84410 -83.63578 8531 ft 164 kts 342°
2026-04-21 18:22 32.85474 -83.64005 8520 ft 161 kts 347°
2026-04-21 18:22 32.86579 -83.64161 8522 ft 161 kts 359°
2026-04-21 18:22 32.87589 -83.64174 8525 ft 163 kts 360°
2026-04-21 18:22 32.88725 -83.64209 8530 ft 164 kts 359°
2026-04-21 18:23 32.89861 -83.64241 8526 ft 161 kts 359°
2026-04-21 18:23 32.90974 -83.64272 8523 ft 160 kts 359°
2026-04-21 18:23 32.91975 -83.64300 8523 ft 161 kts 359°
2026-04-21 18:23 32.93097 -83.64333 8526 ft 161 kts 359°
2026-04-21 18:24 32.94213 -83.64367 8524 ft 159 kts 359°
2026-04-21 18:24 32.95308 -83.64412 8521 ft 156 kts 358°
2026-04-21 18:24 32.96390 -83.64451 8517 ft 155 kts 359°
2026-04-21 18:24 32.97342 -83.64467 8518 ft 154 kts 359°
2026-04-21 18:25 32.98412 -83.64497 8519 ft 153 kts 359°
2026-04-21 18:25 32.99479 -83.64527 8519 ft 153 kts 359°
2026-04-21 18:25 33.00532 -83.64558 8518 ft 153 kts 359°
2026-04-21 18:25 33.01490 -83.64588 8518 ft 153 kts 359°
2026-04-21 18:26 33.02556 -83.64620 8519 ft 153 kts 359°
2026-04-21 18:26 33.03619 -83.64655 8518 ft 153 kts 358°
2026-04-21 18:26 33.04687 -83.64697 8516 ft 153 kts 358°
2026-04-21 18:26 33.05642 -83.64734 8515 ft 153 kts 358°
2026-04-21 18:27 33.06708 -83.64763 8515 ft 153 kts 359°
2026-04-21 18:27 33.07781 -83.64796 8520 ft 156 kts 358°
2026-04-21 18:27 33.08879 -83.64831 8522 ft 159 kts 358°
2026-04-21 18:27 33.09979 -83.64864 8522 ft 161 kts 358°
2026-04-21 18:28 33.10979 -83.64898 8515 ft 159 kts 358°
2026-04-21 18:28 33.12076 -83.64936 8514 ft 156 kts 358°
2026-04-21 18:28 33.13157 -83.64974 8514 ft 155 kts 358°
2026-04-21 18:28 33.14083 -83.65009 8516 ft 154 kts 358°
2026-04-21 18:29 33.15153 -83.65050 8514 ft 154 kts 358°
2026-04-21 18:29 33.16219 -83.65086 8515 ft 153 kts 358°
2026-04-21 18:29 33.17285 -83.65121 8516 ft 153 kts 358°
2026-04-21 18:29 33.18349 -83.65156 8516 ft 152 kts 358°
2026-04-21 18:30 33.19052 -83.65179 8517 ft 152 kts 358°
2026-04-21 18:30 33.20356 -83.65223 8518 ft 152 kts 358°
2026-04-21 18:30 33.21419 -83.65260 8517 ft 152 kts 358°
2026-04-21 18:30 33.22477 -83.65298 8516 ft 152 kts 358°
2026-04-21 18:31 33.23538 -83.65340 8517 ft 152 kts 358°
2026-04-21 18:31 33.24473 -83.65376 8518 ft 152 kts 358°
2026-04-21 18:31 33.25531 -83.65418 8517 ft 152 kts 358°
2026-04-21 18:31 33.26591 -83.65455 8518 ft 152 kts 358°
2026-04-21 18:32 33.27651 -83.65492 8518 ft 152 kts 358°
2026-04-21 18:32 33.28603 -83.65526 8519 ft 152 kts 358°
2026-04-21 18:32 33.29663 -83.65564 8519 ft 152 kts 358°
2026-04-21 18:32 33.30722 -83.65604 8519 ft 152 kts 357°
2026-04-21 18:33 33.31781 -83.65646 8519 ft 152 kts 357°
2026-04-21 18:33 33.32482 -83.65677 8519 ft 152 kts 357°
2026-04-21 18:33 33.33756 -83.65727 8521 ft 152 kts 357°
2026-04-21 18:33 33.34849 -83.65772 8520 ft 152 kts 357°
2026-04-21 18:34 33.35909 -83.65814 8521 ft 152 kts 357°
2026-04-21 18:34 33.36611 -83.65842 8521 ft 152 kts 357°
2026-04-21 18:34 33.37914 -83.65989 8522 ft 152 kts 350°
2026-04-21 18:34 33.38606 -83.66136 8522 ft 152 kts 349°
2026-04-21 18:35 33.39653 -83.66340 8523 ft 152 kts 350°
2026-04-21 18:35 33.40702 -83.66546 8523 ft 152 kts 350°
2026-04-21 18:35 33.41747 -83.66756 8523 ft 152 kts 350°
2026-04-21 18:35 33.42674 -83.66939 8523 ft 152 kts 350°
2026-04-21 18:36 33.43720 -83.67151 8524 ft 152 kts 350°
2026-04-21 18:36 33.44765 -83.67356 8525 ft 152 kts 350°
2026-04-21 18:36 33.45809 -83.67560 8525 ft 152 kts 350°
2026-04-21 18:36 33.46745 -83.67735 8525 ft 152 kts 350°
2026-04-21 18:37 33.47786 -83.67944 8524 ft 151 kts 349°
2026-04-21 18:37 33.48827 -83.68149 8525 ft 151 kts 349°
2026-04-21 18:37 33.49866 -83.68357 8525 ft 151 kts 349°
2026-04-21 18:37 33.50795 -83.68541 8527 ft 151 kts 349°
2026-04-21 18:38 33.51835 -83.68747 8526 ft 151 kts 349°
2026-04-21 18:38 33.52859 -83.68953 8527 ft 151 kts 349°
2026-04-21 18:38 33.53896 -83.69178 8526 ft 151 kts 346°
2026-04-21 18:38 33.54743 -83.69550 8527 ft 151 kts 335°
2026-04-21 18:39 33.55687 -83.70100 8529 ft 151 kts 334°
2026-04-21 18:39 33.56645 -83.70609 8529 ft 151 kts 338°
2026-04-21 18:39 33.57631 -83.71056 8529 ft 151 kts 338°
2026-04-21 18:39 33.58613 -83.71515 8529 ft 151 kts 338°
2026-04-21 18:40 33.59491 -83.71925 8530 ft 151 kts 338°
2026-04-21 18:40 33.60472 -83.72383 8531 ft 151 kts 338°
2026-04-21 18:40 33.61451 -83.72842 8531 ft 151 kts 338°
2026-04-21 18:40 33.62436 -83.73287 8531 ft 151 kts 339°
2026-04-21 18:41 33.63404 -83.73734 8531 ft 151 kts 338°
2026-04-21 18:41 33.64380 -83.74204 8532 ft 151 kts 338°
2026-04-21 18:41 33.65361 -83.74669 8533 ft 151 kts 338°
2026-04-21 18:41 33.66342 -83.75126 8532 ft 151 kts 338°
2026-04-21 18:42 33.67320 -83.75589 8532 ft 151 kts 338°
2026-04-21 18:42 33.68199 -83.76003 8533 ft 151 kts 338°
2026-04-21 18:42 33.69179 -83.76469 8533 ft 152 kts 338°
2026-04-21 18:42 33.70162 -83.76931 8534 ft 152 kts 338°
2026-04-21 18:43 33.71150 -83.77388 8534 ft 152 kts 338°
2026-04-21 18:43 33.72029 -83.77802 8533 ft 152 kts 338°
2026-04-21 18:43 33.73009 -83.78271 8535 ft 151 kts 337°
2026-04-21 18:43 33.73974 -83.78730 8535 ft 151 kts 338°
2026-04-21 18:44 33.74951 -83.79193 8535 ft 151 kts 338°
2026-04-21 18:44 33.75812 -83.79604 8540 ft 152 kts 338°
2026-04-21 18:44 33.76821 -83.80088 8540 ft 156 kts 337°
2026-04-21 18:44 33.77835 -83.80571 8542 ft 158 kts 338°
2026-04-21 18:45 33.78858 -83.81059 8534 ft 157 kts 337°
2026-04-21 18:45 33.79864 -83.81536 8534 ft 154 kts 338°
2026-04-21 18:45 33.80853 -83.82006 8535 ft 152 kts 337°
2026-04-21 18:45 33.81831 -83.82475 8537 ft 151 kts 337°
2026-04-21 18:46 33.82807 -83.82944 8538 ft 151 kts 337°
2026-04-21 18:46 33.83778 -83.83413 8535 ft 151 kts 337°
2026-04-21 18:46 33.84625 -83.83824 8534 ft 150 kts 337°
2026-04-21 18:46 33.85594 -83.84295 8535 ft 150 kts 337°
2026-04-21 18:47 33.86565 -83.84765 8536 ft 150 kts 337°
2026-04-21 18:47 33.87536 -83.85234 8536 ft 150 kts 337°
2026-04-21 18:47 33.88390 -83.85645 8535 ft 150 kts 337°
2026-04-21 18:47 33.89377 -83.86122 8535 ft 150 kts 337°
2026-04-21 18:48 33.90349 -83.86594 8535 ft 151 kts 337°
2026-04-21 18:48 33.91324 -83.87069 8536 ft 151 kts 337°
2026-04-21 18:48 33.92300 -83.87546 8535 ft 152 kts 337°
2026-04-21 18:48 33.93139 -83.87961 8536 ft 152 kts 336°
2026-04-21 18:49 33.94122 -83.88447 8535 ft 152 kts 336°
2026-04-21 18:49 33.95100 -83.88929 8534 ft 152 kts 336°
2026-04-21 18:49 33.95750 -83.89248 8534 ft 152 kts 336°
2026-04-21 18:49 33.96960 -83.89843 8535 ft 152 kts 337°
2026-04-21 18:50 33.97939 -83.90323 8535 ft 151 kts 336°
2026-04-21 18:50 33.98905 -83.90800 8540 ft 154 kts 336°
2026-04-21 18:50 33.99914 -83.91303 8541 ft 158 kts 336°
2026-04-21 18:50 34.00939 -83.91815 8543 ft 161 kts 336°
2026-04-21 18:51 34.01865 -83.92280 8534 ft 159 kts 336°
2026-04-21 18:51 34.02876 -83.92788 8533 ft 155 kts 336°
2026-04-21 18:51 34.03863 -83.93284 8532 ft 153 kts 336°
2026-04-21 18:51 34.04843 -83.93777 8536 ft 152 kts 336°
2026-04-21 18:52 34.05716 -83.94215 8538 ft 151 kts 336°
2026-04-21 18:52 34.06674 -83.94698 8535 ft 151 kts 336°
2026-04-21 18:52 34.07645 -83.95186 8535 ft 151 kts 336°
2026-04-21 18:52 34.08614 -83.95678 8533 ft 151 kts 336°
2026-04-21 18:53 34.09477 -83.96117 8535 ft 151 kts 336°
2026-04-21 18:53 34.10443 -83.96609 8539 ft 152 kts 336°
2026-04-21 18:53 34.11425 -83.97113 8539 ft 154 kts 336°
2026-04-21 18:53 34.12413 -83.97620 8538 ft 155 kts 336°
2026-04-21 18:54 34.13406 -83.98132 8536 ft 154 kts 336°
2026-04-21 18:54 34.14392 -83.98636 8541 ft 156 kts 336°
2026-04-21 18:54 34.15402 -83.99156 8543 ft 159 kts 336°
2026-04-21 18:54 34.16426 -83.99684 8546 ft 161 kts 336°
2026-04-21 18:55 34.17107 -84.00038 8536 ft 161 kts 336°
2026-04-21 18:55 34.18349 -84.00683 8535 ft 155 kts 336°
2026-04-21 18:55 34.19334 -84.01193 8535 ft 153 kts 335°
2026-04-21 18:55 34.20308 -84.01699 8537 ft 152 kts 335°
2026-04-21 18:56 34.21277 -84.02203 8539 ft 151 kts 335°
2026-04-21 18:56 34.22144 -84.02655 8537 ft 151 kts 335°
2026-04-21 18:56 34.23109 -84.03157 8536 ft 151 kts 335°
2026-04-21 18:56 34.24063 -84.03655 8535 ft 151 kts 335°
2026-04-21 18:57 34.25025 -84.04158 8537 ft 151 kts 335°
2026-04-21 18:57 34.25989 -84.04662 8538 ft 151 kts 335°
2026-04-21 18:57 34.26841 -84.05109 8547 ft 147 kts 335°
2026-04-21 18:57 34.27787 -84.05606 8281 ft 154 kts 335°
2026-04-21 18:58 34.28724 -84.06271 7978 ft 158 kts 315°
2026-04-21 18:58 34.29299 -84.07407 7802 ft 156 kts 296°
2026-04-21 18:58 34.29688 -84.08396 7787 ft 149 kts 297°
2026-04-21 18:58 34.30171 -84.09563 7665 ft 151 kts 297°
2026-04-21 18:59 34.30635 -84.10700 7545 ft 150 kts 297°
2026-04-21 18:59 34.31096 -84.11831 7434 ft 150 kts 297°
2026-04-21 18:59 34.31557 -84.12963 7361 ft 149 kts 297°
2026-04-21 18:59 34.32012 -84.14078 7285 ft 150 kts 297°
2026-04-21 19:00 34.32480 -84.15212 7173 ft 150 kts 298°
2026-04-21 19:00 34.32964 -84.16326 7071 ft 150 kts 297°
2026-04-21 19:00 34.33408 -84.17470 6990 ft 150 kts 295°
2026-04-21 19:00 34.33810 -84.18488 6949 ft 149 kts 296°
2026-04-21 19:01 34.34267 -84.19616 6853 ft 150 kts 297°
2026-04-21 19:01 34.34724 -84.20738 6697 ft 150 kts 296°
2026-04-21 19:01 34.35184 -84.21867 6576 ft 148 kts 296°
2026-04-21 19:01 34.35597 -84.22873 6429 ft 150 kts 296°
2026-04-21 19:02 34.36061 -84.24008 6301 ft 149 kts 296°
2026-04-21 19:02 34.36524 -84.25125 6217 ft 149 kts 297°
2026-04-21 19:02 34.37000 -84.26249 6143 ft 150 kts 297°
2026-04-21 19:02 34.37402 -84.27243 6005 ft 151 kts 296°
2026-04-21 19:03 34.37865 -84.28393 5829 ft 151 kts 296°
2026-04-21 19:03 34.38384 -84.29484 5630 ft 151 kts 310°
2026-04-21 19:03 34.39174 -84.30182 5336 ft 158 kts 331°
2026-04-21 19:03 34.40072 -84.30739 5360 ft 145 kts 332°
2026-04-21 19:04 34.40980 -84.31318 5142 ft 151 kts 332°
2026-04-21 19:04 34.41924 -84.31914 4929 ft 151 kts 332°
2026-04-21 19:04 34.42839 -84.32485 4800 ft 147 kts 332°
2026-04-21 19:04 34.43766 -84.33056 4570 ft 151 kts 333°
2026-04-21 19:05 34.44596 -84.33583 4420 ft 150 kts 332°
2026-04-21 19:05 34.45502 -84.34162 4288 ft 149 kts 332°
2026-04-21 19:05 34.46412 -84.34767 4175 ft 149 kts 331°
2026-04-21 19:05 34.47333 -84.35343 4080 ft 149 kts 333°
2026-04-21 19:06 34.48252 -84.35910 3984 ft 147 kts 332°
2026-04-21 19:06 34.49151 -84.36484 3961 ft 146 kts 332°
2026-04-21 19:06 34.50051 -84.37060 4003 ft 146 kts 332°
2026-04-21 19:06 34.50957 -84.37632 4018 ft 147 kts 332°
2026-04-21 19:07 34.51856 -84.38196 4089 ft 143 kts 332°
2026-04-21 19:07 34.52640 -84.38703 4114 ft 143 kts 332°
2026-04-21 19:07 34.53511 -84.39260 4210 ft 140 kts 331°
2026-04-21 19:07 34.54361 -84.39804 4279 ft 140 kts 331°
2026-04-21 19:08 34.55228 -84.40351 4315 ft 141 kts 332°
2026-04-21 19:08 34.55995 -84.40827 4334 ft 141 kts 332°
2026-04-21 19:08 34.56856 -84.41369 4364 ft 139 kts 331°
2026-04-21 19:08 34.57710 -84.41910 4390 ft 138 kts 332°
2026-04-21 19:09 34.58563 -84.42452 4398 ft 138 kts 332°
2026-04-21 19:09 34.59132 -84.42807 4361 ft 139 kts 332°
2026-04-21 19:09 34.60198 -84.43478 4308 ft 140 kts 331°
2026-04-21 19:09 34.61057 -84.44024 4287 ft 139 kts 331°
2026-04-21 19:10 34.61944 -84.44503 4233 ft 139 kts 339°
2026-04-21 19:10 34.62871 -84.44877 4041 ft 144 kts 340°
2026-04-21 19:10 34.63722 -84.45228 3948 ft 143 kts 340°
2026-04-21 19:10 34.64656 -84.45595 3880 ft 141 kts 348°
2026-04-21 19:11 34.65616 -84.45619 3848 ft 138 kts
2026-04-21 19:11 34.66579 -84.45535 3648 ft 143 kts
2026-04-21 19:11 34.67550 -84.45460 3621 ft 136 kts
2026-04-21 19:11 34.68507 -84.45378 3614 ft 139 kts
2026-04-21 19:12 34.69153 -84.45240 3648 ft 139 kts 13°
2026-04-21 19:12 34.70355 -84.44721 3688 ft 138 kts 21°
2026-04-21 19:12 34.70947 -84.44436 3709 ft 138 kts 20°
2026-04-21 19:12 34.72056 -84.43914 3739 ft 138 kts 19°
2026-04-21 19:13 34.72990 -84.43623 3749 ft 139 kts 11°
2026-04-21 19:13 34.73925 -84.43335 3796 ft 138 kts 14°
2026-04-21 19:13 34.74696 -84.43088 3820 ft 138 kts 13°
2026-04-21 19:13 34.75641 -84.42794 3851 ft 139 kts 13°
2026-04-21 19:14 34.76574 -84.42512 3891 ft 138 kts 12°
2026-04-21 19:14 34.77512 -84.42240 3937 ft 139 kts 13°
2026-04-21 19:14 34.78449 -84.41947 4007 ft 138 kts 13°
2026-04-21 19:14 34.79266 -84.41689 4093 ft 132 kts 13°
2026-04-21 19:15 34.80118 -84.41416 4159 ft 124 kts 13°
2026-04-21 19:15 34.80952 -84.41160 4080 ft 123 kts 12°
2026-04-21 19:15 34.81784 -84.40900 3985 ft 124 kts 14°
2026-04-21 19:15 34.82613 -84.40588 3901 ft 125 kts 16°
2026-04-21 19:16 34.83352 -84.40308 3874 ft 123 kts 16°
2026-04-21 19:16 34.84170 -84.40003 3829 ft 123 kts 15°
2026-04-21 19:16 34.84985 -84.39708 3786 ft 122 kts 15°
2026-04-21 19:16 34.85793 -84.39409 3737 ft 121 kts 16°
2026-04-21 19:17 34.87324 -84.38835 3683 ft 120 kts 16°
2026-04-21 19:17 34.88129 -84.38581 3685 ft 120 kts
2026-04-21 19:17 34.88955 -84.38427 3664 ft 120 kts
2026-04-21 19:18 34.89782 -84.38287 3664 ft 119 kts
2026-04-21 19:18 34.90603 -84.38172 3649 ft 119 kts
2026-04-21 19:18 34.91404 -84.37942 3603 ft 120 kts 13°
2026-04-21 19:18 34.92158 -84.37704 3567 ft 106 kts 13°
2026-04-21 19:19 34.92827 -84.37507 3463 ft 94 kts 12°
2026-04-21 19:19 34.93385 -84.37313 3367 ft 90 kts 16°
2026-04-21 19:19 34.93989 -84.37079 3225 ft 92 kts 14°
2026-04-21 19:19 34.94588 -84.36866 3098 ft 87 kts 13°
2026-04-21 19:20 34.95159 -84.36690 2969 ft 83 kts 10°
2026-04-21 19:20 34.95652 -84.36548 2860 ft 80 kts 10°
2026-04-21 19:20 34.96195 -84.36390 2761 ft 80 kts 11°
2026-04-21 19:20 34.96729 -84.36214 2681 ft 79 kts 14°
2026-04-21 19:21 34.97256 -84.36035 2599 ft 78 kts
2026-04-21 19:21 34.97613 -84.35960 2516 ft 78 kts
2026-04-21 19:21 34.98090 -84.35880 2386 ft 75 kts
2026-04-21 19:21 34.98739 -84.35711 2286 ft 71 kts 12°
2026-04-21 19:22 34.99217 -84.35554 2219 ft 71 kts 12°
2026-04-21 19:22 34.99685 -84.35370 2143 ft 72 kts 14°
2026-04-21 19:22 35.00115 -84.35205 2055 ft 73 kts 14°
2026-04-21 19:22 35.00610 -84.35017 1939 ft 75 kts 16°
2026-04-21 19:23 35.00937 -84.34891 1863 ft 74 kts 14°
2026-04-21 19:23 35.01345 -84.34734 1797 ft 66 kts 14°
2026-04-21 19:23 35.01709 -84.34603 1797 ft 31 kts 20°
2026-04-21 19:23 35.01800 -84.34559 1796 ft 5 kts 169°
2026-04-21 19:24 35.01733 -84.34583 1796 ft 12 kts 197°
2026-04-21 19:24 35.01688 -84.34589 1796 ft 4 kts 105°
2026-04-21 19:24 35.01673 -84.34532 1796 ft 9 kts 108°
2026-04-21 19:24 35.01660 -84.34490 1796 ft 7 kts 114°
2026-04-21 19:25 35.01615 -84.34493 1796 ft 6 kts 195°
2026-04-21 19:25 35.01607 -84.34486 1796 ft 0 kts 90°